| time (UTC) | temp F | wind direction | speed knots | gust knots | rain 1hr in | rain 24hr in | rain mn in | humidity % | barometer mb |
| 20260906102010 | 70 | 317 | 0.0 | 0.0 | 0.00 | 0.00 | 0.00 | 96 | 986.4 |
| 20260906101125 | 69 | 317 | 0.0 | 0.0 | 0.00 | 0.00 | 0.00 | 96 | 986.4 |
| 20260906100223 | 70 | 318 | 0.0 | 0.0 | 0.00 | 0.00 | 0.00 | 96 | 986.4 |
| 20260906095751 | 69 | 318 | 0.0 | 0.0 | 0.00 | 0.00 | 0.00 | 96 | 986.4 |
| 20260906095321 | 69 | 318 | 0.0 | 0.0 | 0.00 | 0.00 | 0.00 | 96 | 986.4 |
| 20260906094902 | 69 | 318 | 0.0 | 0.0 | 0.00 | 0.00 | 0.00 | 96 | 986.4 |
| 20260906093946 | 69 | 317 | 0.0 | 0.0 | 0.00 | 0.00 | 0.00 | 96 | 986.4 |
| 20260906093529 | 69 | 318 | 0.0 | 0.0 | 0.00 | 0.00 | 0.00 | 96 | 986.4 |
| 20260906093114 | 69 | 318 | 0.0 | 0.0 | 0.00 | 0.00 | 0.00 | 95 | 986.4 |
| 20260906092656 | 69 | 318 | 0.0 | 0.0 | 0.00 | 0.00 | 0.00 | 95 | 986.4 |
| 20260906091340 | 70 | 318 | 0.0 | 0.0 | 0.00 | 0.00 | 0.00 | 95 | 986.1 |
| 20260906090908 | 70 | 318 | 0.0 | 0.0 | 0.00 | 0.00 | 0.00 | 95 | 986.1 |
| 20260906090002 | 70 | 318 | 0.0 | 0.9 | 0.00 | 0.00 | 0.00 | 95 | 985.7 |
| 20260906085530 | 70 | 21 | 0.0 | 0.0 | 0.00 | 0.00 | 0.00 | 95 | 985.7 |
| 20260906085113 | 70 | 23 | 0.0 | 0.0 | 0.00 | 0.00 | 0.00 | 95 | 985.7 |
| 20260906084642 | 71 | 23 | 0.0 | 0.0 | 0.00 | 0.00 | 0.00 | 95 | 985.7 |
| 20260906084212 | 71 | 348 | 0.0 | 0.9 | 0.00 | 0.00 | 0.00 | 95 | 985.7 |
| 20260906083739 | 71 | 315 | 0.0 | 1.7 | 0.00 | 0.00 | 0.00 | 95 | 985.7 |
| 20260906083323 | 71 | 313 | 0.9 | 1.7 | 0.00 | 0.00 | 0.00 | 95 | 985.7 |
| 20260906082904 | 71 | 319 | 0.0 | 0.0 | 0.00 | 0.00 | 0.00 | 95 | 986.1 |
| 20260906082433 | 71 | 319 | 0.0 | 0.0 | 0.00 | 0.00 | 0.00 | 95 | 986.1 |
| 20260906082002 | 70 | 319 | 0.0 | 0.0 | 0.00 | 0.00 | 0.00 | 95 | 986.1 |
| 20260906081515 | 70 | 319 | 0.0 | 0.0 | 0.00 | 0.00 | 0.00 | 95 | 986.1 |
| 20260906081044 | 71 | 319 | 0.0 | 0.0 | 0.00 | 0.00 | 0.00 | 95 | 986.4 |
| 20260906080614 | 71 | 319 | 0.0 | 0.0 | 0.00 | 0.00 | 0.00 | 96 | 986.4 |
| 20260906080144 | 71 | 319 | 0.0 | 0.0 | 0.00 | 0.00 | 0.00 | 96 | 986.4 |
| 20260906075726 | 71 | 319 | 0.0 | 0.0 | 0.00 | 0.00 | 0.00 | 96 | 986.4 |
| 20260906074837 | 70 | 319 | 0.0 | 0.0 | 0.00 | 0.00 | 0.00 | 95 | 986.4 |
| 20260906074422 | 70 | 319 | 0.0 | 0.0 | 0.00 | 0.00 | 0.00 | 95 | 986.4 |
| 20260906074004 | 70 | 319 | 0.0 | 0.0 | 0.00 | 0.00 | 0.00 | 95 | 986.4 |
| 20260906073533 | 70 | 319 | 0.0 | 0.0 | 0.00 | 0.00 | 0.00 | 95 | 986.4 |
| 20260906073116 | 70 | 319 | 0.0 | 0.0 | 0.00 | 0.00 | 0.00 | 96 | 986.4 |
| 20260906072227 | 70 | 319 | 0.0 | 0.0 | 0.00 | 0.00 | 0.00 | 96 | 986.4 |
| 20260906071756 | 70 | 319 | 0.0 | 0.0 | 0.00 | 0.00 | 0.00 | 96 | 986.4 |
| 20260906071340 | 70 | 319 | 0.0 | 0.0 | 0.00 | 0.00 | 0.00 | 96 | 986.4 |
| 20260906070422 | 70 | 319 | 0.0 | 0.0 | 0.00 | 0.00 | 0.00 | 96 | 986.1 |
| 20260906065518 | 70 | 319 | 0.0 | 0.0 | 0.00 | 0.00 | 0.00 | 96 | 986.4 |
| 20260906064630 | 70 | 319 | 0.0 | 0.0 | 0.00 | 0.00 | 0.00 | 96 | 986.4 |
| 20260906063725 | 70 | 319 | 0.0 | 0.0 | 0.00 | 0.00 | 0.00 | 96 | 986.4 |
| 20260906063307 | 70 | 319 | 0.0 | 0.0 | 0.00 | 0.00 | 0.00 | 96 | 986.4 |
| 20260906062851 | 70 | 319 | 0.0 | 0.0 | 0.00 | 0.00 | 0.00 | 96 | 986.4 |
| 20260906062436 | 70 | 319 | 0.0 | 0.0 | 0.00 | 0.00 | 0.00 | 96 | 986.4 |
| 20260906062002 | 70 | 319 | 0.0 | 0.0 | 0.00 | 0.00 | 0.00 | 96 | 986.4 |
| 20260906061531 | 70 | 319 | 0.0 | 0.0 | 0.00 | 0.00 | 0.00 | 96 | 986.4 |
| 20260906061114 | 70 | 319 | 0.0 | 0.0 | 0.00 | 0.00 | 0.00 | 96 | 986.4 |
| 20260906060657 | 70 | 319 | 0.0 | 0.0 | 0.00 | 0.00 | 0.00 | 96 | 986.7 |
| 20260906060242 | 70 | 319 | 0.0 | 0.0 | 0.00 | 0.00 | 0.00 | 96 | 986.7 |
| 20260906055825 | 70 | 319 | 0.0 | 0.0 | 0.00 | 0.00 | 0.00 | 96 | 986.7 |
| 20260906055410 | 70 | 319 | 0.0 | 0.0 | 0.00 | 0.00 | 0.00 | 96 | 986.7 |
| 20260906054954 | 70 | 319 | 0.0 | 0.0 | 0.00 | 0.00 | 0.00 | 96 | 986.7 |
| 20260906054053 | 70 | 319 | 0.0 | 0.0 | 0.00 | 0.00 | 0.00 | 96 | 986.7 |
| 20260906053639 | 70 | 319 | 0.0 | 0.0 | 0.00 | 0.00 | 0.00 | 96 | 986.7 |
| 20260906053208 | 70 | 319 | 0.0 | 0.0 | 0.00 | 0.00 | 0.00 | 96 | 986.4 |
| 20260906052737 | 70 | 319 | 0.0 | 0.0 | 0.00 | 0.00 | 0.00 | 96 | 986.7 |
| 20260906052306 | 70 | 319 | 0.0 | 0.0 | 0.00 | 0.00 | 0.00 | 96 | 986.7 |
| 20260906051834 | 70 | 319 | 0.0 | 0.0 | 0.00 | 0.00 | 0.00 | 96 | 986.7 |
| 20260906050918 | 70 | 319 | 0.0 | 0.0 | 0.00 | 0.00 | 0.00 | 96 | 986.4 |
| 20260906050503 | 70 | 319 | 0.0 | 0.0 | 0.00 | 0.00 | 0.00 | 96 | 986.4 |
| 20260906050033 | 70 | 319 | 0.0 | 0.0 | 0.00 | 0.00 | 0.00 | 95 | 986.4 |
| 20260906045616 | 70 | 319 | 0.0 | 0.0 | 0.00 | 0.00 | 0.00 | 95 | 986.7 |
| 20260906045159 | 70 | 319 | 0.0 | 0.0 | 0.00 | 0.00 | 0.00 | 95 | 986.7 |
| 20260906044743 | 70 | 319 | 0.0 | 0.0 | 0.00 | 0.00 | 0.00 | 95 | 986.4 |
| 20260906044312 | 70 | 319 | 0.0 | 0.0 | 0.00 | 0.00 | 0.00 | 95 | 986.7 |
| 20260906043840 | 70 | 319 | 0.0 | 0.0 | 0.00 | 0.00 | 0.00 | 95 | 986.7 |
| 20260906043410 | 70 | 319 | 0.0 | 0.0 | 0.00 | 0.00 | 0.00 | 95 | 986.4 |
| 20260906042509 | 70 | 319 | 0.0 | 0.0 | 0.00 | 0.00 | 0.00 | 95 | 986.4 |
| 20260906042054 | 70 | 319 | 0.0 | 0.0 | 0.00 | 0.00 | 0.00 | 95 | 986.4 |
| 20260906041622 | 70 | 319 | 0.0 | 0.0 | 0.00 | 0.00 | 0.00 | 95 | 986.4 |
| 20260906041136 | 70 | 319 | 0.0 | 0.0 | 0.00 | 0.00 | 0.00 | 95 | 986.4 |
| 20260906040719 | 71 | 319 | 0.0 | 0.0 | 0.00 | 0.00 | 0.00 | 95 | 986.4 |
| 20260906040302 | 71 | 319 | 0.0 | 0.0 | 0.00 | 0.00 | 0.00 | 95 | 986.4 |
| 20260906035832 | 71 | 319 | 0.0 | 0.0 | 0.00 | 0.00 | 0.00 | 95 | 986.1 |
| 20260906035415 | 71 | 319 | 0.0 | 0.0 | 0.00 | 0.00 | 0.00 | 95 | 986.1 |
| 20260906034958 | 71 | 319 | 0.0 | 0.0 | 0.00 | 0.00 | 0.00 | 95 | 986.4 |
| 20260906034545 | 71 | 319 | 0.0 | 0.0 | 0.00 | 0.00 | 0.00 | 95 | 986.4 |
| 20260906033610 | 71 | 319 | 0.0 | 0.0 | 0.00 | 0.00 | 0.00 | 95 | 986.4 |
| 20260906033156 | 71 | 319 | 0.0 | 0.0 | 0.00 | 0.00 | 0.00 | 95 | 986.4 |
| 20260906032721 | 71 | 319 | 0.0 | 0.0 | 0.00 | 0.00 | 0.00 | 95 | 986.4 |
| 20260906032250 | 71 | 319 | 0.0 | 0.0 | 0.00 | 0.00 | 0.00 | 95 | 986.4 |
| 20260906031348 | 71 | 319 | 0.0 | 0.0 | 0.00 | 0.00 | 0.00 | 95 | 986.7 |
| 20260906030444 | 71 | 319 | 0.0 | 0.0 | 0.00 | 0.00 | 0.00 | 95 | 987.1 |
| 20260906030027 | 71 | 319 | 0.0 | 0.0 | 0.00 | 0.00 | 0.00 | 95 | 986.7 |
| 20260906025556 | 72 | 319 | 0.0 | 0.0 | 0.00 | 0.00 | 0.00 | 95 | 987.1 |
| 20260906025123 | 72 | 319 | 0.0 | 0.0 | 0.00 | 0.00 | 0.00 | 95 | 987.1 |
| 20260906024650 | 72 | 319 | 0.0 | 0.0 | 0.00 | 0.00 | 0.00 | 95 | 987.1 |
| 20260906024219 | 72 | 319 | 0.9 | 0.9 | 0.00 | 0.00 | 0.00 | 95 | 987.1 |
| 20260906023746 | 72 | 319 | 0.0 | 0.0 | 0.00 | 0.00 | 0.00 | 95 | 987.1 |
| 20260906022844 | 72 | 319 | 0.0 | 0.0 | 0.00 | 0.00 | 0.00 | 95 | 986.7 |
| 20260906022412 | 72 | 319 | 0.0 | 0.0 | 0.00 | 0.00 | 0.00 | 95 | 987.1 |
| 20260906021956 | 72 | 319 | 0.0 | 0.0 | 0.00 | 0.00 | 0.00 | 95 | 987.1 |
| 20260906021526 | 72 | 319 | 0.0 | 0.0 | 0.00 | 0.00 | 0.00 | 95 | 987.1 |
| 20260906021109 | 72 | 319 | 0.0 | 0.0 | 0.00 | 0.00 | 0.00 | 94 | 987.1 |
| 20260906020621 | 72 | 319 | 0.0 | 0.0 | 0.00 | 0.00 | 0.00 | 94 | 986.7 |
| 20260906020150 | 72 | 319 | 0.0 | 0.0 | 0.00 | 0.00 | 0.00 | 94 | 986.7 |
| 20260906015301 | 72 | 319 | 0.0 | 0.0 | 0.00 | 0.00 | 0.00 | 94 | 986.7 |
| 20260906014829 | 73 | 319 | 0.0 | 0.0 | 0.00 | 0.00 | 0.00 | 94 | 986.7 |
| 20260906013941 | 73 | 319 | 0.0 | 0.0 | 0.00 | 0.00 | 0.00 | 94 | 986.7 |
| 20260906013524 | 73 | 319 | 0.0 | 0.0 | 0.00 | 0.00 | 0.00 | 94 | 986.4 |
| 20260906013051 | 73 | 319 | 0.0 | 0.0 | 0.00 | 0.00 | 0.00 | 94 | 986.4 |
| 20260906011731 | 73 | 319 | 0.0 | 0.9 | 0.00 | 0.00 | 0.00 | 94 | 986.4 |
| 20260906011245 | 74 | 319 | 0.0 | 0.9 | 0.00 | 0.00 | 0.00 | 94 | 986.4 |
| 20260906010341 | 74 | 319 | 0.0 | 0.0 | 0.00 | 0.00 | 0.00 | 93 | 986.1 |
| 20260906005924 | 74 | 319 | 0.0 | 0.0 | 0.00 | 0.00 | 0.00 | 93 | 986.1 |
| 20260906005508 | 75 | 319 | 0.0 | 0.0 | 0.00 | 0.00 | 0.00 | 93 | 986.1 |
| 20260906005036 | 75 | 319 | 0.0 | 0.0 | 0.00 | 0.00 | 0.00 | 93 | 986.1 |
| 20260906004132 | 75 | 319 | 0.0 | 0.0 | 0.00 | 0.00 | 0.00 | 93 | 986.1 |
| 20260906003714 | 75 | 319 | 0.0 | 0.0 | 0.00 | 0.00 | 0.00 | 92 | 986.1 |
| 20260906003258 | 76 | 319 | 0.0 | 0.0 | 0.00 | 0.00 | 0.00 | 92 | 986.1 |
| 20260906002811 | 76 | 319 | 0.0 | 0.0 | 0.00 | 0.00 | 0.00 | 92 | 986.1 |
| 20260906002354 | 76 | 319 | 0.0 | 0.0 | 0.00 | 0.00 | 0.00 | 92 | 986.1 |
| 20260906001937 | 76 | 319 | 0.0 | 0.0 | 0.00 | 0.00 | 0.00 | 91 | 985.7 |
| 20260906001521 | 76 | 319 | 0.0 | 0.0 | 0.00 | 0.00 | 0.00 | 91 | 985.7 |
| 20260906001049 | 77 | 319 | 0.0 | 0.0 | 0.00 | 0.00 | 0.00 | 91 | 985.7 |
| 20260906000204 | 77 | 319 | 0.0 | 0.0 | 0.00 | 0.00 | 0.00 | 90 | 985.7 |
| 20260905235744 | 77 | 319 | 0.0 | 0.0 | 0.00 | 0.00 | 0.00 | 90 | 986.1 |
| 20260905235310 | 78 | 319 | 0.0 | 0.0 | 0.00 | 0.00 | 0.00 | 90 | 985.7 |
| 20260905234839 | 78 | 319 | 0.0 | 0.0 | 0.00 | 0.00 | 0.00 | 89 | 985.7 |
| 20260905234423 | 78 | 319 | 0.0 | 0.9 | 0.00 | 0.00 | 0.00 | 89 | 985.7 |
| 20260905234008 | 78 | 319 | 0.0 | 0.0 | 0.00 | 0.00 | 0.00 | 88 | 986.1 |
| 20260905233553 | 79 | 319 | 0.0 | 0.9 | 0.00 | 0.00 | 0.00 | 88 | 986.1 |
| 20260905232654 | 79 | 319 | 0.0 | 0.0 | 0.00 | 0.00 | 0.00 | 87 | 985.7 |
| 20260905232226 | 80 | 319 | 0.0 | 0.0 | 0.00 | 0.00 | 0.00 | 87 | 985.7 |
| 20260905231756 | 80 | 319 | 0.0 | 0.0 | 0.00 | 0.00 | 0.00 | 86 | 985.7 |
| 20260905230911 | 80 | 319 | 0.0 | 0.0 | 0.00 | 0.00 | 0.00 | 85 | 985.7 |
| 20260905230441 | 81 | 319 | 0.0 | 0.0 | 0.00 | 0.00 | 0.00 | 83 | 985.7 |
| 20260905230010 | 81 | 319 | 0.9 | 1.7 | 0.00 | 0.00 | 0.00 | 82 | 985.7 |
| 20260905225055 | 82 | 105 | 0.0 | 0.0 | 0.00 | 0.00 | 0.00 | 83 | 985.4 |
| 20260905224638 | 82 | 105 | 0.0 | 0.9 | 0.00 | 0.00 | 0.00 | 81 | 985.7 |
| 20260905224220 | 83 | 102 | 0.0 | 0.0 | 0.00 | 0.00 | 0.00 | 79 | 985.4 |
| 20260905223802 | 84 | 102 | 0.0 | 0.0 | 0.00 | 0.00 | 0.00 | 78 | 985.4 |
| 20260905223333 | 85 | 102 | 0.0 | 0.0 | 0.00 | 0.00 | 0.00 | 75 | 985.7 |
| 20260905222917 | 86 | 103 | 0.0 | 0.0 | 0.00 | 0.00 | 0.00 | 74 | 985.7 |
| 20260905222503 | 87 | 102 | 0.0 | 0.0 | 0.00 | 0.00 | 0.00 | 73 | 985.7 |
| 20260905222048 | 87 | 102 | 0.0 | 0.0 | 0.00 | 0.00 | 0.00 | 72 | 985.4 |
| 20260905221632 | 87 | 103 | 0.0 | 2.6 | 0.00 | 0.00 | 0.00 | 71 | 985.4 |
| 20260905220730 | 88 | 333 | 1.7 | 1.7 | 0.00 | 0.00 | 0.00 | 67 | 985.4 |
| 20260905215838 | 89 | 341 | 2.6 | 2.6 | 0.00 | 0.00 | 0.00 | 65 | 985.4 |
| 20260905214951 | 89 | 302 | 1.7 | 2.6 | 0.00 | 0.00 | 0.00 | 65 | 985.4 |
| 20260905214521 | 89 | 6 | 1.7 | 2.6 | 0.00 | 0.00 | 0.00 | 63 | 985.4 |
| 20260905214105 | 89 | 12 | 0.9 | 3.5 | 0.00 | 0.00 | 0.00 | 64 | 985.4 |
| 20260905213636 | 89 | 74 | 1.7 | 3.5 | 0.00 | 0.00 | 0.00 | 63 | 985.4 |
| 20260905212252 | 89 | 87 | 1.7 | 5.2 | 0.00 | 0.00 | 0.00 | 63 | 985.1 |
| 20260905211407 | 89 | 38 | 2.6 | 4.3 | 0.00 | 0.00 | 0.00 | 64 | 985.1 |
| 20260905210950 | 89 | 332 | 2.6 | 3.5 | 0.00 | 0.00 | 0.00 | 63 | 985.1 |
| 20260905210536 | 89 | 352 | 2.6 | 6.1 | 0.00 | 0.00 | 0.00 | 63 | 985.1 |
| 20260905210105 | 89 | 106 | 4.3 | 8.7 | 0.00 | 0.00 | 0.00 | 61 | 985.1 |
| 20260905205617 | 89 | 329 | 2.6 | 6.1 | 0.00 | 0.00 | 0.00 | 64 | 985.1 |
| 20260905204719 | 89 | 94 | 3.5 | 4.3 | 0.00 | 0.00 | 0.00 | 62 | 985.1 |
| 20260905204301 | 90 | 107 | 5.2 | 7.8 | 0.00 | 0.00 | 0.00 | 61 | 985.1 |
| 20260905203845 | 90 | 85 | 1.7 | 3.5 | 0.00 | 0.00 | 0.00 | 64 | 985.1 |
| 20260905203430 | 90 | 64 | 1.7 | 4.3 | 0.00 | 0.00 | 0.00 | 62 | 985.1 |
| 20260905203016 | 90 | 84 | 3.5 | 6.1 | 0.00 | 0.00 | 0.00 | 60 | 985.1 |
| 20260905202601 | 90 | 346 | 0.9 | 5.2 | 0.00 | 0.00 | 0.00 | 64 | 985.4 |
| 20260905202147 | 89 | 58 | 3.5 | 4.3 | 0.00 | 0.00 | 0.00 | 64 | 985.1 |
| 20260905201732 | 90 | 76 | 2.6 | 5.2 | 0.00 | 0.00 | 0.00 | 61 | 985.1 |
| 20260905201316 | 90 | 321 | 2.6 | 3.5 | 0.00 | 0.00 | 0.00 | 64 | 985.1 |
| 20260905200846 | 89 | 312 | 1.7 | 4.3 | 0.00 | 0.00 | 0.00 | 62 | 985.1 |
| 20260905200401 | 89 | 332 | 0.9 | 1.7 | 0.00 | 0.00 | 0.00 | 63 | 985.1 |
| 20260905195946 | 89 | 112 | 1.7 | 4.3 | 0.00 | 0.00 | 0.00 | 62 | 985.1 |
| 20260905195516 | 89 | 110 | 3.5 | 5.2 | 0.00 | 0.00 | 0.00 | 61 | 985.4 |
| 20260905195100 | 89 | 78 | 5.2 | 7.0 | 0.00 | 0.00 | 0.00 | 59 | 985.4 |
| 20260905194155 | 88 | 116 | 2.6 | 4.3 | 0.00 | 0.00 | 0.00 | 61 | 985.4 |
| 20260905193708 | 89 | 125 | 5.2 | 6.1 | 0.00 | 0.00 | 0.00 | 60 | 985.4 |
| 20260905193252 | 89 | 93 | 5.2 | 7.0 | 0.00 | 0.00 | 0.00 | 62 | 985.4 |
| 20260905191933 | 89 | 44 | 1.7 | 5.2 | 0.00 | 0.00 | 0.00 | 61 | 985.7 |
| 20260905191049 | 89 | 121 | 2.6 | 5.2 | 0.00 | 0.00 | 0.00 | 62 | 985.7 |
| 20260905190617 | 88 | 103 | 3.5 | 6.1 | 0.00 | 0.00 | 0.00 | 59 | 986.1 |
| 20260905185730 | 88 | 60 | 2.6 | 5.2 | 0.00 | 0.00 | 0.00 | 63 | 986.4 |
| 20260905185314 | 89 | 89 | 5.2 | 7.0 | 0.00 | 0.00 | 0.00 | 65 | 986.4 |
| 20260905184843 | 88 | 72 | 4.3 | 4.3 | 0.00 | 0.00 | 0.00 | 70 | 986.4 |
| 20260905184429 | 88 | 45 | 0.0 | 3.5 | 0.00 | 0.00 | 0.00 | 70 | 986.7 |
| 20260905183958 | 87 | 122 | 1.7 | 2.6 | 0.00 | 0.00 | 0.00 | 70 | 986.7 |
| 20260905183527 | 86 | 79 | 3.5 | 4.3 | 0.00 | 0.00 | 0.00 | 72 | 986.7 |
| 20260905183110 | 86 | 49 | 3.5 | 6.1 | 0.00 | 0.00 | 0.00 | 69 | 986.7 |
| 20260905182652 | 87 | 75 | 4.3 | 4.3 | 0.00 | 0.00 | 0.00 | 72 | 987.1 |
| 20260905182223 | 87 | 330 | 2.6 | 2.6 | 0.00 | 0.00 | 0.00 | 70 | 987.1 |
| 20260905181805 | 88 | 101 | 0.0 | 1.7 | 0.00 | 0.00 | 0.00 | 69 | 987.1 |
| 20260905180914 | 86 | 124 | 0.0 | 4.3 | 0.00 | 0.00 | 0.00 | 72 | 987.1 |
| 20260905180013 | 86 | 316 | 1.7 | 1.7 | 0.00 | 0.00 | 0.00 | 73 | 987.1 |
| 20260905175557 | 85 | 310 | 0.9 | 2.6 | 0.00 | 0.00 | 0.00 | 76 | 987.1 |
| 20260905175143 | 84 | 15 | 2.6 | 2.6 | 0.00 | 0.00 | 0.00 | 74 | 987.1 |
| 20260905174726 | 85 | 330 | 1.7 | 3.5 | 0.00 | 0.00 | 0.00 | 76 | 987.1 |
| 20260905174257 | 85 | 313 | 0.0 | 0.0 | 0.00 | 0.00 | 0.00 | 75 | 987.1 |
| 20260905173842 | 84 | 198 | 0.0 | 0.9 | 0.00 | 0.00 | 0.00 | 75 | 987.1 |
| 20260905172955 | 83 | 198 | 0.0 | 1.7 | 0.00 | 0.00 | 0.00 | 77 | 987.1 |
| 20260905172539 | 82 | 65 | 0.9 | 1.7 | 0.00 | 0.00 | 0.00 | 79 | 987.1 |
| 20260905172109 | 82 | 71 | 1.7 | 2.6 | 0.00 | 0.00 | 0.00 | 79 | 987.1 |
| 20260905171651 | 83 | 103 | 1.7 | 2.6 | 0.00 | 0.00 | 0.00 | 78 | 987.1 |
| 20260905171238 | 83 | 207 | 0.0 | 1.7 | 0.00 | 0.00 | 0.00 | 77 | 987.1 |
| 20260905170805 | 82 | 116 | 0.0 | 1.7 | 0.00 | 0.00 | 0.00 | 78 | 987.1 |
| 20260905170335 | 82 | 340 | 0.0 | 0.9 | 0.00 | 0.00 | 0.00 | 79 | 987.1 |
| 20260905165918 | 82 | 123 | 0.9 | 1.7 | 0.00 | 0.00 | 0.00 | 78 | 987.1 |
| 20260905165501 | 82 | 339 | 0.0 | 0.9 | 0.00 | 0.00 | 0.00 | 78 | 987.1 |
| 20260905165045 | 82 | 309 | 0.0 | 2.6 | 0.00 | 0.00 | 0.00 | 78 | 987.4 |
| 20260905164629 | 82 | 34 | 1.7 | 2.6 | 0.00 | 0.00 | 0.00 | 80 | 987.4 |
| 20260905164214 | 82 | 327 | 0.9 | 1.7 | 0.00 | 0.00 | 0.00 | 82 | 987.4 |
| 20260905163742 | 82 | 329 | 0.0 | 0.9 | 0.00 | 0.00 | 0.00 | 82 | 987.1 |
| 20260905163312 | 81 | 263 | 0.9 | 2.6 | 0.00 | 0.00 | 0.00 | 81 | 987.4 |
| 20260905162840 | 81 | 330 | 0.9 | 2.6 | 0.00 | 0.00 | 0.00 | 82 | 987.4 |
| 20260905161951 | 81 | 304 | 0.0 | 2.6 | 0.00 | 0.00 | 0.00 | 81 | 987.4 |
| 20260905161536 | 80 | 221 | 0.0 | 0.0 | 0.00 | 0.00 | 0.00 | 82 | 987.4 |
| 20260905160649 | 80 | 352 | 1.7 | 2.6 | 0.00 | 0.00 | 0.00 | 84 | 987.8 |
| 20260905155332 | 79 | 319 | 0.0 | 0.0 | 0.00 | 0.00 | 0.00 | 88 | 988.1 |
| 20260905154847 | 79 | 319 | 0.0 | 0.0 | 0.00 | 0.00 | 0.00 | 88 | 988.4 |
| 20260905154417 | 78 | 319 | 0.0 | 0.0 | 0.00 | 0.00 | 0.00 | 89 | 988.4 |
| 20260905153527 | 77 | 319 | 0.0 | 0.0 | 0.00 | 0.00 | 0.00 | 89 | 988.8 |
| 20260905153111 | 78 | 310 | 0.0 | 1.7 | 0.00 | 0.00 | 0.00 | 87 | 988.4 |
| 20260905152653 | 77 | 237 | 0.0 | 5.2 | 0.00 | 0.00 | 0.00 | 87 | 988.8 |
| 20260905152236 | 77 | 316 | 0.9 | 0.9 | 0.00 | 0.00 | 0.00 | 90 | 989.1 |
| 20260905151347 | 77 | 317 | 0.0 | 3.5 | 0.00 | 0.00 | 0.00 | 91 | 989.8 |
| 20260905150931 | 76 | 318 | 0.0 | 2.6 | 0.00 | 0.00 | 0.00 | 90 | 989.5 |
| 20260905150513 | 76 | 326 | 3.5 | 4.3 | 0.00 | 0.00 | 0.00 | 91 | 989.8 |
| 20260905150058 | 76 | 138 | 0.0 | 7.0 | 0.00 | 0.00 | 0.00 | 92 | 989.5 |
| 20260905145641 | 77 | 117 | 2.6 | 2.6 | 0.00 | 0.00 | 0.00 | 92 | 988.8 |
| 20260905145225 | 77 | 139 | 0.0 | 0.0 | 0.00 | 0.00 | 0.00 | 93 | 988.8 |
| 20260905144808 | 77 | 139 | 0.0 | 0.0 | 0.00 | 0.00 | 0.00 | 92 | 988.8 |
| 20260905144352 | 77 | 139 | 0.0 | 0.0 | 0.00 | 0.00 | 0.00 | 92 | 988.8 |
| 20260905143935 | 77 | 139 | 0.0 | 0.0 | 0.00 | 0.00 | 0.00 | 91 | 989.1 |
| 20260905143504 | 77 | 139 | 0.0 | 0.0 | 0.00 | 0.00 | 0.00 | 91 | 988.8 |
| 20260905143032 | 77 | 155 | 0.0 | 0.0 | 0.00 | 0.00 | 0.00 | 90 | 989.1 |
| 20260905142615 | 77 | 82 | 0.0 | 0.0 | 0.00 | 0.00 | 0.00 | 92 | 989.5 |
| 20260905142159 | 77 | 82 | 0.0 | 2.6 | 0.00 | 0.00 | 0.00 | 91 | 989.1 |
| 20260905141741 | 77 | 107 | 0.9 | 2.6 | 0.00 | 0.00 | 0.00 | 92 | 989.1 |
| 20260905141325 | 77 | 310 | 0.9 | 1.7 | 0.00 | 0.00 | 0.00 | 92 | 989.1 |
| 20260905140838 | 77 | 310 | 0.0 | 0.0 | 0.00 | 0.00 | 0.00 | 94 | 989.1 |
| 20260905140422 | 77 | 310 | 0.0 | 0.0 | 0.00 | 0.00 | 0.00 | 94 | 989.1 |
| 20260905140005 | 76 | 310 | 0.0 | 0.0 | 0.00 | 0.00 | 0.00 | 94 | 989.1 |
| 20260905135547 | 76 | 310 | 0.0 | 0.0 | 0.00 | 0.00 | 0.00 | 93 | 989.5 |
| 20260905135130 | 76 | 310 | 0.0 | 0.0 | 0.00 | 0.00 | 0.00 | 93 | 989.5 |
| 20260905134658 | 75 | 310 | 0.0 | 0.0 | 0.00 | 0.00 | 0.00 | 93 | 989.5 |
| 20260905134242 | 75 | 310 | 0.0 | 0.9 | 0.00 | 0.00 | 0.00 | 93 | 989.1 |
| 20260905132919 | 74 | 103 | 3.5 | 3.5 | 0.00 | 0.00 | 0.00 | 94 | 989.5 |
| 20260905132448 | 74 | 349 | 3.5 | 5.2 | 0.00 | 0.00 | 0.00 | 94 | 989.5 |
| 20260905132017 | 74 | 217 | 2.6 | 4.3 | 0.00 | 0.00 | 0.00 | 94 | 989.5 |
| 20260905131546 | 74 | 334 | 0.0 | 0.0 | 0.00 | 0.00 | 0.00 | 94 | 988.1 |
| 20260905131129 | 74 | 334 | 0.0 | 0.0 | 0.00 | 0.00 | 0.00 | 94 | 988.1 |
| 20260905130713 | 74 | 334 | 0.0 | 2.6 | 0.00 | 0.00 | 0.00 | 94 | 988.1 |
| 20260905125822 | 73 | 27 | 1.7 | 1.7 | 0.00 | 0.00 | 0.00 | 94 | 988.1 |
| 20260905125404 | 73 | 330 | 0.0 | 2.6 | 0.00 | 0.00 | 0.00 | 94 | 988.1 |
| 20260905124933 | 73 | 307 | 0.0 | 0.0 | 0.00 | 0.00 | 0.00 | 95 | 988.1 |
| 20260905124502 | 73 | 324 | 0.9 | 2.6 | 0.00 | 0.00 | 0.00 | 95 | 988.4 |
| 20260905124046 | 73 | 333 | 1.7 | 2.6 | 0.00 | 0.00 | 0.00 | 95 | 988.4 |
| 20260905123616 | 0 | 0.0 | 0.0 | 0.00 | 0.00 | 0.00 | 988.1 | ||
| 20260905123200 | 0 | 0.0 | 0.0 | 0.00 | 0.00 | 0.00 | 988.4 | ||
| 20260905122743 | 0 | 0.0 | 0.0 | 0.00 | 0.00 | 0.00 | 988.1 | ||
| 20260905121838 | 0 | 0.0 | 0.0 | 0.00 | 0.00 | 0.00 | 988.4 | ||
| 20260905120507 | 0 | 0.0 | 0.0 | 0.00 | 0.00 | 0.00 | 988.1 | ||
| 20260905120050 | 0 | 0.0 | 0.0 | 0.00 | 0.00 | 0.00 | 988.1 | ||
| 20260905115604 | 0 | 0.0 | 0.0 | 0.00 | 0.00 | 0.00 | 987.8 | ||
| 20260905115132 | 0 | 0.0 | 0.0 | 0.00 | 0.00 | 0.00 | 987.8 | ||
| 20260905114715 | 0 | 0.0 | 0.0 | 0.00 | 0.00 | 0.00 | 987.8 | ||
| 20260905114245 | 0 | 0.0 | 0.0 | 0.00 | 0.00 | 0.00 | 987.8 | ||
| 20260905113830 | 0 | 0.0 | 0.0 | 0.00 | 0.00 | 0.00 | 987.8 | ||
| 20260905112459 | 0 | 0.0 | 0.0 | 0.00 | 0.00 | 0.00 | 987.8 | ||
| 20260905111614 | 0 | 0.0 | 0.0 | 0.00 | 0.00 | 0.00 | 987.8 | ||
| 20260905111157 | 0 | 0.0 | 0.0 | 0.00 | 0.00 | 0.00 | 987.8 | ||
| 20260905110312 | 0 | 0.0 | 0.0 | 0.00 | 0.00 | 0.00 | 987.8 | ||
| 20260905105857 | 0 | 0.0 | 0.0 | 0.00 | 0.00 | 0.00 | 988.1 | ||
| 20260905104939 | 0 | 0.0 | 0.0 | 0.00 | 0.00 | 0.00 | 987.8 | ||
| 20260905104523 | 0 | 0.0 | 0.0 | 0.00 | 0.00 | 0.00 | 987.4 | ||
| 20260905104107 | 0 | 0.0 | 0.0 | 0.00 | 0.00 | 0.00 | 987.4 | ||
| 20260905103651 | 0 | 0.0 | 0.0 | 0.00 | 0.00 | 0.00 | 987.8 | ||
| 20260905103220 | 0 | 0.0 | 0.0 | 0.00 | 0.00 | 0.00 | 987.4 |